Wind_Speed
15 14 13 12 11 11 10 9 8 8 7 6 6 5 4 4 3 3 3 3 3 3 3 4 4 5 5 6 7 7 8 8 8 9 10 11 11 12 12 12 12 12 13
18 16 15 14 13 12 11 10 10 9 8 8 7 6 6 5 5 4 4 4 4 5 5 6 6 7 8 8 9 9 10 10 11 11 12 12 13 13 14 14 14 14 14
20 19 17 16 15 14 13 12 11 10 10 9 8 8 7 6 6 6 6 7 7 7 7 7 8 9 9 10 11 11 12 12 13 13 13 14 14 15 15 15 15 16 16
21 20 19 18 17 15 14 13 12 11 11 10 10 9 9 8 8 8 8 9 9 9 9 9 10 10 10 11 12 12 13 13 14 15 15 16 16 17 17 17 17 17 17
23 22 21 20 19 17 16 15 14 13 12 12 11 11 10 10 10 10 10 10 10 10 10 11 11 11 12 13 13 14 14 15 15 16 16 17 18 19 19 19 19 19 19
24 23 22 21 20 19 17 16 15 14 14 13 13 13 12 12 12 12 11 11 11 12 12 12 13 13 14 14 15 15 15 16 17 17 17 18 19 20 20 20 21 21 21
26 24 24 23 22 20 19 18 17 16 16 16 15 14 14 14 14 14 13 13 13 13 14 14 14 15 15 16 16 16 16 17 17 18 18 19 19 20 20 21 22 22 22
27 26 25 24 23 22 21 20 19 18 17 17 17 16 16 16 15 15 15 15 15 15 15 15 16 16 16 17 17 17 18 18 18 19 20 20 21 20 21 21 22 22 23
28 27 26 25 24 23 22 21 20 20 19 18 18 18 17 17 17 17 18 17 17 17 17 17 17 18 18 19 19 19 19 20 21 21 21 22 22 22 22 22 23 23 24
29 28 28 27 26 25 23 22 22 21 21 20 19 19 19 19 19 19 19 19 19 19 19 20 20 20 20 20 20 21 21 21 22 22 23 23 23 23 24 24 24 25 25
30 30 29 28 27 25 24 24 23 22 22 22 21 20 20 20 20 20 20 21 21 21 22 22 22 22 21 21 22 22 23 23 23 23 23 23 24 24 25 25 25 26 26
32 31 30 29 28 27 25 25 24 24 23 23 22 22 22 22 22 22 22 22 22 23 23 23 23 23 23 23 23 23 23 23 23 23 24 24 25 25 25 25 26 26 27
32 32 31 30 29 28 27 26 25 25 24 24 24 24 23 23 23 23 23 23 23 24 24 24 24 24 24 24 24 25 25 24 24 25 25 26 26 26 26 26 26 27 27
33 33 32 31 30 29 28 27 27 26 26 26 25 25 24 24 24 24 24 25 25 25 25 25 25 25 25 25 25 25 25 25 26 26 27 26 26 27 27 27 28 28 28
34 34 33 32 31 30 29 28 28 28 27 26 26 26 25 26 26 26 26 26 26 26 26 26 25 25 25 26 26 26 26 27 27 28 27 28 28 28 28 28 28 28 29
34 34 34 34 33 32 31 30 29 29 29 28 27 26 27 27 27 28 27 26 26 26 26 26 26 26 26 26 27 27 27 28 28 29 29 29 29 29 30 30 30 30 30
33 33 33 34 34 33 32 32 29 29 29 29 28 27 28 28 29 28 28 27 27 27 27 27 28 28 27 28 28 28 28 29 30 30 30 30 30 30 30 31 31 31 31
33 33 33 34 34 33 32 32 31 30 30 30 29 29 29 29 30 29 29 29 29 28 28 29 29 29 29 29 29 29 30 30 30 30 30 31 31 31 31 32 32 32 33
33 32 32 33 33 33 33 32 31 31 31 31 30 30 30 30 30 30 30 30 30 30 30 30 30 30 30 31 31 31 31 31 31 32 32 33 33 33 33 33 34 35 35
33 33 32 31 32 32 33 33 32 31 31 31 31 32 32 31 31 30 31 31 31 32 32 32 32 32 32 32 32 32 32 33 33 34 34 35 35 35 35 35 35 35 36
32 32 31 31 31 33 34 34 33 33 32 32 32 33 33 32 32 32 32 32 33 33 33 33 33 34 33 32 33 33 34 35 35 36 36 37 37 37 37 38 37 37 38
29 30 30 31 31 32 33 34 34 35 35 34 34 34 34 34 34 33 34 34 34 34 34 34 35 34 35 34 35 36 36 36 37 37 38 38 38 39 39 40 39 39 39
27 29 30 31 31 31 32 33 33 34 36 37 37 36 35 35 36 36 35 35 34 34 35 35 36 36 37 37 37 37 38 38 38 39 39 40 40 40 41 42 41 40 40
27 28 29 31 32 31 30 32 33 34 35 36 37 37 37 36 36 36 35 35 36 36 37 37 37 38 39 39 39 40 40 40 40 40 41 41 41 41 42 42 42 42 42
26 27 29 31 32 33 33 33 34 34 35 35 36 36 36 36 36 36 37 37 37 38 38 39 39 40 40 41 41 41 42 42 42 42 42 42 43 43 43 43 43 43 43
27 28 29 30 31 33 33 34 34 35 35 35 35 36 37 37 37 37 38 38 39 39 40 41 41 42 42 43 44 44 44 44 44 44 44 44 45 44 43 43 43 44 43
Wind_Direction
234 231 230 229 227 224 223 224 225 226 227 229 230 232 235 238 242 247 258 272 284 294 298 299 299 300 299 298 297 296 295 294 292 289 288 286 284 283 283 283 282 282 282
235 233 231 229 228 227 226 228 231 234 235 234 236 239 243 244 247 251 260 273 280 285 289 291 294 296 296 295 294 293 293 292 291 289 288 287 286 284 283 282 281 280 280
234 233 231 229 228 228 227 228 233 238 240 238 242 246 248 249 252 258 267 274 278 281 285 287 291 294 294 294 295 294 293 292 291 290 288 286 285 284 282 281 281 280 280
231 230 230 229 229 229 229 230 233 238 240 243 245 248 251 254 257 264 271 274 277 279 282 285 288 291 293 294 294 295 294 292 290 289 287 286 285 283 282 281 281 280 279
229 229 228 229 229 230 232 233 234 237 241 243 247 251 254 258 262 266 271 274 277 279 281 284 286 289 291 292 292 292 292 292 292 290 289 287 285 284 282 280 279 278 278
228 228 228 228 229 231 232 234 237 239 242 246 249 253 257 260 264 267 270 273 276 278 280 282 284 287 289 290 290 291 291 291 291 291 290 289 288 286 283 280 279 278 277
228 228 228 228 229 231 232 235 238 241 244 248 252 254 257 261 264 267 270 273 276 277 279 281 283 285 287 288 289 290 291 291 291 290 291 291 290 288 286 283 280 278 277
229 228 228 228 229 230 233 236 240 243 246 249 252 254 257 261 264 267 270 273 275 276 278 279 281 283 285 287 288 289 290 290 290 290 291 291 291 290 288 285 283 281 279
229 229 228 229 230 232 235 237 239 243 246 249 251 254 258 260 263 266 270 272 274 276 277 278 281 282 284 286 287 287 288 289 290 290 289 289 289 289 288 287 285 283 281
228 228 228 229 231 233 236 238 240 243 246 249 252 255 259 261 264 267 270 272 274 275 276 277 279 281 283 285 286 287 288 289 289 289 288 287 287 287 287 287 286 284 282
227 228 228 229 231 234 237 239 242 244 247 250 252 256 260 263 266 267 269 272 273 274 275 276 279 280 281 283 285 286 288 288 288 288 287 287 287 286 286 286 285 284 282
226 227 229 230 232 235 237 240 242 245 248 251 254 257 260 263 266 268 270 271 273 274 275 276 278 279 280 282 283 285 286 287 287 286 286 287 287 287 287 286 285 283 282
225 227 229 230 232 235 238 241 244 246 249 252 255 257 260 263 266 268 269 270 271 272 274 275 277 279 280 281 282 283 284 285 285 285 286 286 287 286 286 286 285 284 284
225 227 228 230 232 235 238 241 244 247 250 252 255 257 259 263 266 268 269 270 271 272 272 273 275 278 279 281 281 283 284 285 285 286 287 287 287 286 285 286 285 284 283
224 226 228 230 233 236 238 242 246 248 250 253 255 257 260 263 265 268 270 271 272 272 272 273 275 277 279 280 281 283 284 285 286 286 286 286 286 286 285 285 285 283 283
225 226 229 231 234 236 239 243 246 248 249 252 255 258 261 264 266 268 271 271 271 272 273 274 276 277 278 280 282 283 284 284 286 286 285 286 286 286 285 285 283 282 282
226 228 230 232 234 237 239 242 245 248 251 253 256 259 262 265 266 268 269 270 271 273 274 275 276 278 279 280 281 282 282 283 285 285 285 285 286 285 285 283 282 282 281
226 228 231 233 236 238 241 244 245 247 250 253 257 260 263 266 267 267 268 270 272 274 275 276 277 278 280 280 280 281 282 283 283 284 284 284 284 283 283 282 283 282 282
226 229 231 234 238 241 243 244 245 247 250 254 257 259 262 265 266 267 268 270 272 274 276 277 277 278 280 280 279 280 281 281 282 283 283 283 283 282 282 282 282 281 281
229 231 234 236 240 243 243 244 245 248 250 254 257 260 262 263 265 267 268 270 273 275 276 277 278 277 279 280 278 279 279 280 281 282 283 283 282 281 281 282 282 281 281
233 235 238 241 244 246 246 247 249 251 254 256 258 261 262 263 266 268 270 272 273 275 276 276 276 276 278 279 279 279 279 280 281 282 283 282 281 280 281 282 281 281 281
238 240 242 245 247 250 249 250 252 255 256 258 261 263 264 265 268 270 272 274 275 275 275 274 275 277 278 279 279 279 280 281 282 283 283 282 281 280 280 281 281 280 280
241 243 245 248 250 251 250 251 254 257 259 261 263 265 266 268 269 271 273 274 276 277 277 276 277 279 278 279 279 280 280 281 282 283 283 282 282 281 281 280 280 279 279
244 247 250 251 252 253 254 255 257 259 261 263 264 265 267 267 269 271 273 274 277 278 279 279 279 280 279 279 280 280 280 281 282 282 283 283 282 282 282 281 279 278 278
247 251 253 255 254 255 257 260 260 261 263 265 266 266 268 269 271 273 274 276 277 279 279 279 279 279 280 280 280 280 280 281 281 282 282 283 282 283 282 280 279 278 277
250 253 256 259 258 258 260 263 264 263 264 265 267 268 270 272 273 274 275 277 278 279 279 278 279 279 279 280 281 281 281 281 282 283 283 283 283 282 281 280 279 278 278
Height
5868 5869 5870 5871 5871 5872 5872 5873 5873 5874 5874 5874 5874 5874 5874 5874 5874 5874 5873 5873 5873 5873 5872 5872 5871 5871 5871 5870 5870 5869 5869 5868 5868 5867 5867 5866 5866 5865 5865 5864 5864 5863 5862
5865 5866 5867 5868 5869 5870 5870 5871 5872 5872 5872 5873 5873 5873 5873 5873 5873 5872 5872 5872 5872 5871 5871 5871 5870 5870 5869 5869 5868 5868 5867 5866 5866 5865 5865 5864 5863 5863 5862 5862 5861 5860 5860
5861 5863 5864 5865 5866 5867 5868 5869 5869 5870 5871 5871 5871 5871 5871 5871 5871 5871 5871 5870 5870 5870 5869 5869 5868 5868 5867 5867 5866 5865 5865 5864 5863 5863 5862 5861 5861 5860 5859 5859 5858 5858 5857
5857 5859 5861 5862 5863 5865 5866 5866 5867 5868 5868 5869 5869 5869 5870 5870 5869 5869 5869 5869 5868 5868 5867 5867 5866 5866 5865 5864 5864 5863 5862 5861 5861 5860 5859 5858 5857 5857 5856 5855 5855 5854 5854
5853 5855 5857 5859 5860 5862 5863 5864 5864 5865 5866 5866 5867 5867 5867 5867 5867 5867 5867 5866 5866 5866 5865 5865 5864 5863 5863 5862 5861 5860 5859 5858 5857 5857 5856 5855 5854 5853 5853 5852 5851 5851 5850
5849 5851 5853 5855 5857 5858 5860 5861 5862 5862 5863 5864 5864 5865 5865 5865 5865 5865 5865 5864 5864 5863 5862 5862 5861 5861 5860 5859 5858 5857 5856 5855 5854 5853 5852 5851 5850 5849 5849 5848 5847 5846 5846
5845 5847 5849 5851 5853 5855 5856 5858 5859 5860 5860 5861 5861 5862 5862 5862 5862 5862 5862 5862 5861 5860 5860 5859 5858 5858 5857 5856 5855 5854 5853 5852 5851 5850 5848 5847 5846 5845 5844 5843 5843 5842 5841
5840 5843 5845 5847 5849 5851 5852 5854 5855 5856 5857 5858 5858 5858 5859 5859 5859 5859 5859 5858 5858 5857 5857 5856 5855 5854 5853 5853 5852 5850 5849 5848 5847 5846 5845 5843 5842 5841 5840 5839 5838 5837 5836
5835 5838 5840 5843 5845 5847 5848 5850 5851 5853 5853 5854 5854 5855 5855 5856 5856 5856 5855 5855 5854 5854 5853 5852 5852 5851 5850 5849 5848 5847 5846 5844 5843 5842 5840 5839 5838 5837 5836 5834 5833 5832 5832
5830 5833 5835 5838 5840 5842 5844 5846 5847 5848 5849 5850 5851 5851 5851 5852 5852 5851 5851 5851 5851 5850 5849 5848 5848 5847 5846 5845 5844 5842 5841 5840 5839 5837 5836 5835 5833 5832 5831 5830 5829 5827 5827
5824 5827 5830 5833 5835 5837 5839 5841 5843 5844 5845 5846 5847 5847 5847 5848 5847 5847 5847 5847 5846 5846 5845 5844 5843 5842 5841 5840 5839 5838 5836 5835 5834 5832 5831 5830 5828 5827 5826 5824 5823 5822 5821
5819 5822 5825 5828 5830 5833 5835 5836 5838 5839 5840 5841 5842 5842 5843 5843 5843 5843 5842 5842 5842 5841 5840 5839 5838 5837 5836 5835 5834 5833 5832 5830 5829 5827 5826 5825 5823 5822 5820 5819 5818 5817 5815
5813 5817 5820 5823 5825 5828 5830 5832 5833 5834 5835 5836 5837 5837 5838 5838 5838 5838 5837 5837 5836 5836 5835 5834 5833 5832 5831 5830 5829 5828 5827 5825 5824 5822 5821 5819 5818 5816 5815 5813 5812 5811 5810
5808 5811 5815 5818 5820 5822 5824 5826 5828 5829 5830 5831 5832 5832 5832 5833 5833 5833 5832 5832 5831 5830 5829 5829 5828 5827 5826 5825 5824 5823 5821 5820 5818 5817 5815 5813 5812 5811 5809 5808 5806 5805 5804
5802 5806 5809 5812 5815 5817 5819 5820 5822 5823 5824 5825 5826 5827 5827 5827 5827 5827 5827 5826 5826 5825 5824 5823 5823 5822 5821 5820 5818 5817 5816 5814 5813 5811 5809 5808 5806 5804 5803 5802 5800 5799 5798
5796 5800 5803 5806 5809 5811 5813 5815 5816 5817 5818 5819 5820 5821 5822 5822 5822 5822 5821 5820 5820 5819 5818 5818 5817 5815 5815 5814 5813 5811 5810 5808 5807 5805 5803 5802 5800 5798 5797 5795 5794 5793 5791
5791 5794 5797 5800 5803 5805 5807 5809 5810 5811 5813 5813 5814 5815 5816 5816 5816 5815 5815 5815 5814 5813 5813 5812 5811 5809 5808 5808 5806 5805 5804 5802 5800 5798 5797 5795 5793 5792 5790 5788 5787 5786 5785
5785 5789 5791 5794 5797 5799 5801 5803 5804 5805 5806 5807 5808 5809 5810 5810 5810 5809 5809 5809 5808 5807 5806 5806 5805 5804 5802 5801 5800 5799 5797 5796 5794 5792 5790 5789 5787 5785 5783 5782 5780 5779 5778
5780 5783 5785 5788 5790 5793 5794 5796 5797 5799 5800 5801 5802 5802 5803 5803 5803 5803 5802 5802 5801 5801 5800 5799 5798 5797 5795 5794 5793 5792 5790 5789 5787 5785 5783 5781 5780 5778 5776 5775 5773 5771 5770
5775 5778 5780 5782 5784 5786 5788 5789 5790 5792 5794 5794 5795 5795 5796 5796 5796 5796 5795 5795 5795 5794 5793 5792 5791 5790 5788 5787 5785 5784 5783 5781 5779 5778 5776 5774 5772 5770 5768 5767 5765 5764 5762
5770 5773 5774 5776 5778 5780 5781 5782 5783 5785 5787 5788 5788 5788 5788 5788 5789 5788 5788 5788 5787 5787 5786 5785 5784 5783 5781 5779 5778 5777 5775 5773 5772 5770 5768 5766 5764 5762 5760 5758 5757 5755 5754
5765 5767 5769 5770 5772 5773 5774 5775 5776 5778 5779 5780 5780 5780 5781 5781 5781 5781 5781 5780 5780 5779 5778 5777 5776 5775 5773 5772 5770 5768 5767 5766 5763 5761 5759 5757 5755 5753 5751 5749 5748 5746 5745
5759 5761 5763 5764 5766 5767 5767 5769 5770 5770 5771 5772 5773 5773 5773 5773 5773 5773 5773 5772 5771 5771 5770 5769 5768 5767 5765 5764 5762 5760 5758 5757 5755 5753 5750 5748 5746 5743 5742 5740 5738 5736 5735
5754 5755 5757 5758 5759 5760 5760 5762 5762 5763 5764 5765 5765 5765 5765 5765 5765 5765 5764 5764 5763 5762 5762 5761 5759 5758 5756 5755 5753 5751 5750 5747 5746 5744 5741 5738 5736 5734 5732 5730 5728 5726 5724
5748 5749 5750 5751 5752 5752 5753 5754 5755 5756 5756 5757 5757 5757 5756 5757 5756 5756 5756 5755 5754 5754 5753 5751 5750 5749 5747 5745 5744 5742 5740 5737 5735 5733 5732 5729 5726 5724 5721 5719 5717 5716 5714
5742 5743 5744 5744 5744 5745 5746 5747 5748 5748 5749 5749 5749 5749 5748 5748 5748 5747 5747 5746 5745 5744 5743 5742 5741 5739 5737 5735 5734 5732 5729 5727 5725 5722 5721 5718 5716 5713 5711 5709 5707 5705 5703